x

8720218 - Mayport (bar Pilots Dock), Fl (mypf1) Weather Station

2:54pm - Thu 26th May 2016 All times are EDT. -4 hours from GMT.

  • Wind
    10mph, 14mph gusts
  • Sea Temp 79°f
  • Air Temp 77°f
  • Sea Pressure 1021.5mb
  • 8720218 - Mayport (bar Pilots Dock), Fl
  • 8720218 - Mayport (bar Pilots Dock), Fl

More Historic Weather Station data

Upgrade to MSW Pro to gain access to the past 30 days of data for over 8000 Wavebouys and Weather Stations around the globe.

Join Pro

Comparision Forecast

View Surf forecast
   
Thu 05/26 2:54pm 10 14 mph 1021.5mb 79f 77f
2:48pm 11 15 mph 1021.5mb 78f 78f
2:42pm 9 15 mph 1021.7mb 78f 77f
2:36pm 10 13 mph 1021.7mb 78f 77f
2:30pm 11 14 mph 1021.8mb 79f 77f
2:24pm 10 14 mph 1021.8mb 78f 77f
2:18pm 10 14 mph 1021.9mb 79f 77f
2:12pm 10 14 mph 1021.9mb 79f 78f
2:06pm 8 13 mph 1022mb 78f 77f
2:00pm 10 14 mph 1022mb 78f 77f
1:54pm 8 13 mph 1022mb 78f 77f
1:48pm  -  mph 1022.1mb 78f 77f
1:42pm  -  mph 1022.1mb 78f 78f
1:36pm  -  mph 1022.1mb 78f 77f
1:30pm 7 11 mph 1022.2mb 78f 77f
1:24pm 10 14 mph 1022.2mb 78f 77f
1:18pm 8 14 mph 1022.2mb 78f 77f
1:12pm 9 11 mph 1022.2mb 78f 77f
1:06pm 10 13 mph 1022.2mb 78f 77f
1:00pm 8 13 mph 1022.3mb 78f 77f
12:54pm 8 13 mph 1022.2mb 78f 77f
12:48pm 8 13 mph 1022.2mb 78f 77f
12:42pm 9 13 mph 1022.3mb 78f 77f
12:36pm 9 13 mph 1022.4mb 78f 77f
12:30pm 8 11 mph 1022.5mb 78f 77f
12:24pm 8 11 mph 1022.7mb 78f 77f
12:18pm 9 13 mph 1022.7mb 78f 77f
12:12pm 8 10 mph 1022.8mb 78f 77f
12:06pm 7 11 mph 1022.8mb 78f 77f
12:00pm 9 11 mph 1022.8mb 78f 77f
11:54am 8 10 mph 1022.7mb 78f 77f
11:48am 9 11 mph 1022.7mb 78f 77f
11:42am 7 10 mph 1022.7mb 79f 77f
11:36am 7 11 mph 1022.8mb 79f 77f
11:30am 10 11 mph 1022.8mb 79f 77f
11:24am 9 11 mph 1022.7mb 79f 77f
11:18am 8 11 mph 1022.7mb 80f 78f
11:06am 9 13 mph 1022.7mb 80f 77f
11:00am 10 14 mph 1022.7mb 80f 77f
10:54am 8 13 mph 1022.7mb 80f 77f
10:48am 8 11 mph 1022.8mb 80f 77f
10:42am 9 10 mph 1022.8mb 80f 77f
10:36am 8 10 mph 1022.9mb 80f 77f
10:30am 8 10 mph 1022.9mb 80f 77f
10:24am 9 13 mph 1023mb 80f 77f
10:18am 7 10 mph 1023.1mb 80f 77f
10:12am 6 8 mph 1023.1mb 80f 78f
10:06am 3 8 mph 1023.1mb 80f 78f
10:00am 2 7 mph 1023.1mb 80f 79f
9:54am 3 8 mph 1023.1mb 80f 78f
9:48am 3 6 mph 1023.2mb 80f 78f
9:42am  -  7 mph 1023.2mb 80f 78f
9:36am 3 7 mph 1023.2mb 80f 78f
9:30am 6 9 mph 1023.1mb 80f 77f
9:24am 6 7 mph 1023.1mb 80f 78f
9:18am 2 8 mph 1023.1mb 80f 78f
9:12am 3 7 mph 1023mb 80f 78f
9:06am 6 9 mph 1023mb 80f 77f
9:00am 2 7 mph 1023mb 80f 78f
8:54am 6 8 mph 1022.9mb 80f 78f
8:48am 6 8 mph 1022.8mb 80f 77f
8:42am 5 8 mph 1022.7mb 80f 78f
8:36am 7 9 mph 1022.7mb 80f 78f
8:30am 6 7 mph 1022.7mb 80f 78f
8:24am 6 9 mph 1022.5mb 80f 77f
8:18am 3 7 mph 1022.5mb 80f 78f
8:12am 5 8 mph 1022.3mb 80f 78f
8:06am 6 9 mph 1022.1mb 80f 78f
8:00am 8 10 mph 1021.9mb 80f 78f
7:54am 7 10 mph 1021.9mb 80f 78f
7:48am 6 9 mph 1021.9mb 80f 78f
7:42am 5 8 mph 1021.9mb 80f 77f
7:36am 6 10 mph 1021.7mb 80f 77f
7:24am 6 11 mph 1021.4mb 80f 77f
7:18am 6 10 mph 1021.5mb 80f 77f
7:12am 6 11 mph 1021.5mb 80f 77f
7:06am 8 10 mph 1021.5mb 80f 77f
7:00am 6 11 mph 1021.6mb 80f 76f
6:54am 5 9 mph 1021.5mb 80f 76f
6:48am 6 9 mph 1021.5mb 80f 76f
6:42am 6 9 mph 1021.5mb 80f 76f
6:36am 7 10 mph 1021.5mb 80f 76f
6:30am 6 9 mph 1021.6mb 80f 76f
6:24am 6 9 mph 1021.5mb 79f 76f
6:18am 6 10 mph 1021.6mb 79f 76f
6:12am 5 8 mph 1021.5mb 79f 76f
6:06am 5 6 mph 1021.6mb 79f 75f
6:00am 3 9 mph 1021.6mb 79f 76f
5:54am 5 7 mph 1021.5mb 79f 75f
5:48am 5 7 mph 1021.5mb 79f 75f
5:42am 2 6 mph 1021.5mb 79f 74f
5:36am 3 6 mph 1021.5mb 79f 74f
5:30am 3 5 mph 1021.5mb 79f 74f
5:24am 2 6 mph 1021.5mb 79f 74f
5:18am 5 6 mph 1021.4mb 79f 74f
5:12am 3 5 mph 1021.4mb 79f 74f
5:06am 3 5 mph 1021.4mb 79f 74f
5:00am 2 5 mph 1021.4mb 79f 74f
4:54am 2 3 mph 1021.5mb 79f 74f
4:48am 2 3 mph 1021.6mb 79f 74f
4:42am 2 5 mph 1021.6mb 79f 75f
4:36am 2 6 mph 1021.7mb 79f 75f
4:30am 3 5 mph 1021.6mb 79f 75f
4:24am 3 7 mph 1021.6mb 79f 75f
4:18am 3 7 mph 1021.5mb 79f 75f
4:12am 3 6 mph 1021.5mb 79f 75f
4:06am 5 7 mph 1021.5mb 79f 75f
4:00am 5 6 mph 1021.5mb 79f 75f
3:54am 5 7 mph 1021.6mb 79f 75f
3:48am 3 7 mph 1021.6mb 78f 75f
3:42am 5 6 mph 1021.6mb 78f 75f
3:36am 3 5 mph 1021.6mb 78f 75f
3:30am 2 6 mph 1021.6mb 78f 75f
3:24am 3 6 mph 1021.6mb 78f 75f
3:18am 3 6 mph 1021.7mb 78f 75f
3:12am 5 6 mph 1021.7mb 78f 75f
3:06am 5 6 mph 1021.8mb 78f 75f
3:00am 5 7 mph 1021.9mb 78f 76f
2:54am 3 6 mph 1022mb 78f 76f
2:48am 2 6 mph 1022mb 78f 76f
2:42am 5 6 mph 1021.9mb 78f 76f
2:36am 6 7 mph 1021.9mb 78f 76f
2:30am 3 7 mph 1022mb 78f 76f
2:24am 5 8 mph 1022.1mb 78f 76f
2:18am 5 8 mph 1022.2mb 78f 76f
2:12am 6 10 mph 1022.2mb 78f 76f
2:06am 7 9 mph 1022.2mb 78f 76f
2:00am 6 9 mph 1022.2mb 78f 76f
1:54am 6 10 mph 1022.3mb 78f 76f
1:48am 6 9 mph 1022.3mb 78f 76f
1:42am 6 9 mph 1022.4mb 78f 76f
1:36am 3 9 mph 1022.5mb 78f 76f
1:30am 6 8 mph 1022.5mb 78f 76f
1:24am 6 8 mph 1022.5mb 78f 76f
1:18am 3 8 mph 1022.6mb 78f 76f
1:12am 6 9 mph 1022.6mb 78f 76f
1:06am 5 8 mph 1022.6mb 78f 76f
1:00am 6 8 mph 1022.6mb 78f 76f
12:54am 5 7 mph 1022.6mb 78f 76f
12:48am 5 8 mph 1022.7mb 78f 76f
12:42am 3 7 mph 1022.7mb 78f 76f
12:36am 5 7 mph 1022.8mb 78f 76f
12:30am 3 6 mph 1023mb 78f 76f
12:24am 6 8 mph 1023mb 78f 76f
12:18am 5 9 mph 1023mb 78f 76f
12:12am 7 9 mph 1023.1mb 78f 76f
12:06am 6 7 mph 1023.1mb 78f 76f
12:00am 3 6 mph 1023.2mb 78f 76f
Wed 05/25 11:54pm 3 5 mph 1023.3mb 78f 76f
11:48pm  -  mph 1023.3mb 78f 76f
11:42pm  -  mph 1023.3mb 78f 76f
11:36pm  -  mph 1023.3mb 78f 76f
11:30pm 5 8 mph 1023.3mb 78f 76f
11:24pm 5 7 mph 1023.3mb 78f 77f
11:18pm  -  mph 1023.3mb 78f 77f
11:12pm  -  mph 1023.3mb 78f 77f
11:06pm  -  mph 1023.2mb 78f 77f
11:00pm  -  mph - 78f 77f
10:54pm  -  mph - 78f 77f
10:48pm  -  mph - 78f 77f
10:42pm  -  mph - 78f 76f
10:36pm  -  mph - 78f 76f
10:30pm 3 6 mph 1023.1mb 79f -
10:24pm 5 7 mph 1023mb 79f -
10:18pm  -  mph 1023mb 78f 76f
10:12pm  -  mph 1022.9mb 79f 76f
10:06pm  -  mph 1022.9mb 79f 76f
10:00pm 5 6 mph 1022.8mb 80f -
9:54pm 5 7 mph 1022.8mb 80f -
9:48pm  -  mph 1022.7mb 80f -
9:42pm  -  mph 1022.7mb 80f -
9:36pm  -  mph 1022.7mb 80f -
9:30pm 5 7 mph 1022.6mb 80f -
9:24pm 5 8 mph 1022.5mb 80f -
9:18pm 6 8 mph 1022.5mb 80f -
9:12pm 5 7 mph 1022.3mb 81f -
9:06pm 5 8 mph 1022.3mb 81f -
9:00pm  -  mph 1022.2mb 81f -
8:54pm  -  mph 1022.3mb 81f -
8:48pm  -  mph 1022.3mb 81f -
8:42pm  -  mph 1022.3mb 81f -
8:36pm  -  mph 1022.3mb 81f -
8:30pm 5 8 mph 1022.4mb 81f -
8:24pm 5 8 mph 1022.3mb 81f -
8:18pm  -  mph 1022.3mb 81f 77f
8:12pm  -  mph 1022.3mb 81f 78f
8:06pm  -  mph 1022.3mb 81f 78f
8:00pm 6 10 mph 1022.3mb 81f -
7:54pm 6 10 mph 1022.2mb 81f -
7:48pm 8 11 mph - 81f -
7:42pm 6 9 mph - 81f -
7:36pm 7 11 mph - 81f -
7:30pm 9 13 mph 1022.2mb 81f -
7:24pm 9 13 mph 1022.1mb 81f -
7:18pm  -  mph 1022.2mb 81f 80f
7:12pm  -  mph 1022.2mb 81f 80f
7:06pm  -  mph 1022.2mb 81f 80f
7:00pm  -  mph 1022.2mb 81f -
6:54pm  -  mph 1022.3mb 81f -
6:48pm 8 14 mph 1022.3mb - -
6:42pm 10 14 mph 1022.3mb - -
6:36pm 8 13 mph 1022.3mb - -
6:30pm 9 15 mph 1022.4mb - -
6:24pm 10 15 mph 1022.4mb - -
6:18pm 8 13 mph 1022.4mb 81f 80f
6:12pm 9 13 mph 1022.5mb 80f 80f
6:06pm 8 11 mph 1022.6mb 80f 80f
6:00pm 10 14 mph 1022.6mb 81f -
5:54pm 8 14 mph 1022.7mb 81f -
5:48pm  -  mph 1022.8mb - -
5:42pm  -  mph 1022.8mb - -
5:36pm  -  mph 1022.8mb - -
5:30pm 8 13 mph 1022.9mb 81f 81f
5:24pm 8 15 mph 1023mb 81f 80f
5:18pm 10 14 mph 1023mb 81f 80f
5:12pm 11 15 mph 1023mb 81f 80f
5:06pm 8 14 mph 1023.1mb 81f 80f
5:00pm 8 15 mph 1023.1mb 81f 81f
4:54pm 10 15 mph 1023.1mb 81f 80f
4:48pm 11 16 mph 1023.2mb 80f 80f
4:42pm 10 15 mph 1023.1mb 81f 80f
4:36pm 8 16 mph 1023.2mb 80f 81f
4:30pm 7 15 mph 1023.2mb 80f 81f
4:24pm 9 13 mph 1023.2mb 80f 81f
4:18pm 9 14 mph 1023.3mb 80f 81f
4:12pm 9 13 mph 1023.4mb 80f 81f
4:06pm 8 14 mph 1023.4mb 80f 81f
4:00pm 10 14 mph 1023.4mb 80f 80f
3:54pm 7 15 mph 1023.4mb 80f 81f
3:48pm 9 14 mph 1023.5mb 80f 80f
3:42pm 9 15 mph 1023.5mb 80f 80f
3:36pm 11 16 mph 1023.5mb 80f 80f
3:30pm 8 14 mph 1023.6mb 80f 80f
3:24pm 11 15 mph 1023.7mb 79f 80f
3:18pm 10 15 mph 1023.7mb 79f 80f
3:12pm 9 16 mph 1023.7mb 79f 80f
3:06pm 10 14 mph 1023.7mb 79f 81f
3:00pm 9 15 mph 1023.8mb 79f 80f
2:54pm 11 18 mph 1023.8mb 79f 80f
2:48pm 10 14 mph 1023.8mb 79f 80f
2:42pm 8 15 mph 1023.8mb 79f 80f
2:36pm 8 14 mph 1023.9mb 79f 80f
2:30pm 8 17 mph 1024mb 79f 80f
2:24pm 10 16 mph 1024mb 79f 80f
2:18pm 13 16 mph 1023.9mb 79f 80f
2:12pm 8 16 mph 1024mb 79f 81f
2:06pm 9 14 mph 1024mb 79f 80f
2:00pm 9 14 mph 1024mb 79f 80f
1:54pm 10 16 mph 1023.9mb 79f 80f
1:48pm 11 15 mph 1023.9mb 78f 80f
1:42pm 8 15 mph 1024mb 78f 81f
1:36pm 9 16 mph 1023.9mb 78f 81f
1:30pm 9 14 mph 1024mb 78f 81f
1:24pm 7 14 mph 1024.1mb 78f 81f
1:18pm 7 14 mph 1024.1mb 78f 81f
1:12pm 10 15 mph 1024.2mb 78f 80f
1:06pm 10 14 mph 1024.2mb 78f 80f
1:00pm 9 15 mph 1024.1mb 78f 80f
12:54pm 8 16 mph 1024.3mb 78f 80f
12:48pm 10 16 mph 1024.3mb 78f 80f
12:42pm 8 14 mph 1024.4mb 78f 80f
12:36pm 10 15 mph 1024.3mb 78f 80f
12:30pm 10 14 mph 1024.4mb 78f 80f
12:24pm 10 15 mph 1024.5mb 78f 80f
12:18pm 9 14 mph 1024.5mb 78f 80f
12:12pm 8 14 mph 1024.5mb 78f 80f
12:06pm 9 14 mph 1024.5mb 78f 80f
12:00pm 7 15 mph 1024.4mb 78f 80f
11:54am 9 14 mph 1024.6mb 78f 80f
11:48am 9 14 mph 1024.6mb 78f 80f
11:42am 9 15 mph 1024.6mb 78f 80f
11:36am 11 16 mph 1024.6mb 78f 80f
11:30am 11 15 mph 1024.5mb 78f 80f
11:24am 10 15 mph 1024.6mb 78f 81f
11:18am 7 11 mph 1024.6mb 78f 80f
11:12am 8 14 mph 1024.6mb 78f 80f
11:06am 9 14 mph 1024.5mb 78f 80f
11:00am 8 13 mph 1024.4mb 78f 80f
10:54am 7 11 mph 1024.3mb 79f 80f
10:48am 7 11 mph 1024.3mb 79f 80f
10:42am 10 14 mph 1024.2mb 79f 79f
10:36am 7 13 mph 1024.2mb 79f 80f
10:30am 10 14 mph 1024.1mb 79f 80f
10:24am 9 13 mph 1024.1mb 79f 79f
10:18am 8 13 mph 1024.1mb 79f 80f
10:12am 6 11 mph 1024.2mb 79f 80f
10:06am 7 13 mph 1024.1mb 79f 80f
9:54am 3 14 mph 1024mb 80f 80f
9:48am 8 11 mph 1024mb 80f 79f
9:42am 8 10 mph 1024mb 80f 79f
9:36am 5 10 mph 1024.1mb 80f 79f
9:30am 6 10 mph 1024.1mb 80f 79f
9:24am 6 10 mph 1024.1mb 80f 78f
9:18am 6 7 mph 1024.1mb 80f 78f
9:12am 3 6 mph 1024mb 80f 78f
9:06am 5 7 mph 1024mb 80f 77f
9:00am 3 5 mph 1024.1mb 80f 76f
8:54am 3 5 mph 1024.1mb 80f 76f
8:48am 3 5 mph 1024mb 79f 76f
8:42am 3
mph
1024mb 79f 76f
8:36am 2 5 mph 1023.9mb 79f 76f
8:30am 3
mph
1023.8mb 79f 75f
8:24am 3 5 mph 1023.7mb 79f 75f
8:18am 2
mph
1023.6mb 79f 75f
8:12am 1 3 mph 1023.5mb 79f 75f
8:06am 3
mph
1023.4mb 79f 74f
8:00am 2 5 mph 1023.4mb 79f 74f
7:54am 3 5 mph 1023.4mb 79f 74f
7:48am 5
mph
1023.3mb 79f 74f
7:42am 3 5 mph 1023.3mb 79f 74f
7:36am 3 5 mph 1023.2mb 79f 74f
7:30am 3
mph
1023.1mb 79f 74f
7:24am 3
mph
1023mb 79f 74f
7:18am 3 5 mph 1022.9mb 79f 74f
7:12am 3 5 mph 1022.9mb 79f 74f
7:06am 2 3 mph 1022.8mb 79f 74f
7:00am 2 3 mph 1022.7mb 79f 73f
6:54am 1 2 mph 1022.6mb 79f 73f
6:48am 2 3 mph 1022.5mb 79f 73f
6:42am 3 5 mph 1022.4mb 79f 73f
6:36am 2 3 mph 1022.4mb 79f 73f
6:30am 2 3 mph 1022.3mb 79f 73f
6:24am 2 3 mph 1022.2mb 79f 72f
6:18am 1 3 mph 1022.2mb 79f 72f
6:12am 2 5 mph 1022.2mb 79f 72f
6:06am 3 5 mph 1022.1mb 79f 72f
5:54am 3 5 mph 1021.9mb 79f 72f
5:42am 2 3 mph 1021.9mb 79f 72f
5:36am 2 3 mph 1021.8mb 79f 72f
5:24am 3 5 mph 1021.7mb 79f 72f
5:18am 3 5 mph 1021.7mb 79f 72f
5:12am 3 5 mph 1021.7mb 79f 72f
5:06am 2 5 mph 1021.6mb 79f 72f
5:00am 3 5 mph 1021.6mb 79f 73f
4:54am 3 5 mph 1021.7mb 79f 73f
4:48am 3 5 mph 1021.7mb 79f 73f
4:42am 2 5 mph 1021.8mb 79f 73f
4:36am 3 5 mph 1021.8mb 79f 73f
4:30am 3 5 mph 1021.8mb 79f 73f
4:24am 3 6 mph 1021.9mb 79f 73f
4:18am 3 5 mph 1021.9mb 79f 73f
4:12am 3 5 mph 1022mb 79f 74f
4:06am 3 5 mph 1022mb 79f 74f
4:00am 3 5 mph 1022mb 79f 74f
3:54am 3 5 mph 1022mb 79f 74f
3:48am 3 5 mph 1022mb 79f 74f
3:42am 3 5 mph 1022mb 79f 74f
3:36am 3 5 mph 1022mb 79f 74f
3:30am 5 6 mph 1022.1mb 79f 75f
3:24am 3 6 mph 1022mb 79f 75f
3:18am 3 6 mph 1022mb 79f 75f
3:12am 5 6 mph 1022mb 78f 75f
3:06am 5 6 mph 1022mb 78f 75f
3:00am 3 5 mph 1022mb 78f 76f
2:54am 3 6 mph 1021.9mb 78f 76f
2:48am 3 6 mph 1022mb 78f 76f
2:42am 3 6 mph 1022mb 78f 76f
2:36am 5 6 mph 1022mb 78f 76f
2:30am 6 9 mph 1022.1mb 78f 76f
2:24am 5 8 mph 1022.1mb 78f 76f
2:18am 5 7 mph 1022mb 78f 76f
2:12am 5 7 mph 1022mb 78f 76f
2:06am 3 7 mph 1022mb 78f 76f
2:00am 5 7 mph 1022mb 78f 76f
1:54am 5 7 mph 1022.1mb 78f 76f
1:48am 5 8 mph 1022.2mb 78f 76f
1:42am 5 7 mph 1022.2mb 78f 76f
1:36am 6 8 mph 1022.2mb 78f 76f
1:30am 5 7 mph 1022.2mb 78f 76f
1:24am 5 7 mph 1022.3mb 78f 76f
1:18am 5 7 mph 1022.3mb 78f 76f
1:12am 5 8 mph 1022.3mb 78f 76f
1:06am 5 8 mph 1022.3mb 78f 76f
12:54am 6 9 mph 1022.4mb 78f 77f
12:48am 6 8 mph 1022.4mb 78f 77f
12:42am 5 8 mph 1022.4mb 78f 77f
12:36am 5 8 mph 1022.5mb 78f 77f
12:30am 6 9 mph 1022.5mb 78f 77f
12:24am 6 8 mph 1022.6mb 78f 77f
12:18am 5 9 mph 1022.7mb 78f 77f
12:12am 6 8 mph 1022.7mb 78f 77f
12:06am 5 7 mph 1022.6mb 78f 77f
12:00am 6 9 mph 1022.6mb 78f 77f
Tue 05/24 11:54pm 6 7 mph 1022.6mb 78f 76f
11:48pm  -  mph 1022.6mb 78f 77f
11:42pm  -  mph 1022.6mb 78f 76f
11:36pm  -  mph 1022.6mb 78f 77f
11:30pm 6 9 mph 1022.6mb 78f 77f
11:24pm 5 9 mph 1022.5mb 78f 77f
11:18pm  -  mph 1022.5mb 78f 77f
11:12pm  -  mph 1022.4mb 78f 77f
11:06pm  -  mph 1022.3mb 78f 77f
11:00pm 5 9 mph 1022.3mb 78f 77f
10:54pm 5 8 mph 1022.3mb 78f 77f
10:48pm 5 8 mph - - -
10:42pm 6 9 mph - - -
10:36pm 6 10 mph - - -
10:24pm 5 8 mph - 79f -
10:18pm  -  mph 1021.9mb 79f 77f
10:12pm  -  mph 1021.8mb 79f 77f
10:00pm  -  mph 1021.7mb 79f 77f
9:54pm  -  mph 1021.6mb 79f 77f
9:48pm  -  mph 1021.6mb - -
9:42pm  -  mph 1021.5mb - -
9:36pm  -  mph 1021.4mb - -
9:30pm 6 9 mph 1021.3mb 78f -
9:24pm 6 9 mph 1021.2mb 78f -
9:18pm  -  mph 1021.1mb 78f 78f
9:12pm  -  mph 1021.2mb 78f 78f
9:06pm  -  mph 1021.1mb 79f 78f
9:00pm  -  mph 1021mb 79f -
8:54pm  -  mph 1021mb 80f -
8:48pm  -  mph 1021mb - -
8:42pm  -  mph 1020.9mb - -
8:36pm  -  mph 1021mb - -
8:30pm 6 11 mph 1020.9mb - 78f
8:24pm 6 11 mph 1020.9mb - 78f
8:18pm  -  mph 1020.8mb 80f 78f
8:12pm  -  mph 1020.7mb 80f 78f
8:06pm  -  mph 1020.7mb 80f 78f
8:00pm  -  mph 1020.6mb - 78f
7:54pm  -  mph 1020.5mb - 79f
7:48pm 9 15 mph - 80f -
7:42pm 10 14 mph - 80f -
7:36pm 9 14 mph - 80f -
7:30pm  -  mph 1020.3mb 80f -
7:24pm  -  mph 1020.2mb 80f -
7:18pm  -  mph 1020.2mb 80f 80f
7:12pm  -  mph 1020.1mb 80f 79f
7:06pm  -  mph 1020.1mb 80f 80f
7:00pm  -  mph 1020.1mb 80f 80f
6:54pm  -  mph 1020mb 80f 79f
6:48pm  -  mph 1020mb 80f 80f
6:42pm  -  mph 1020.2mb 80f 80f
6:36pm  -  mph 1020.2mb 80f 80f
6:24pm 8 14 mph 1020.4mb 80f -
6:18pm 8 13 mph 1020.4mb 80f -
6:12pm 8 14 mph 1020.4mb 80f -
6:06pm 9 13 mph 1020.4mb 80f -
6:00pm  -  mph - - 80f
5:54pm  -  mph - - 80f
5:48pm  -  mph 1020.4mb 80f 80f
5:42pm  -  mph 1020.5mb 80f 80f
5:36pm  -  mph 1020.5mb 80f 80f
5:30pm 8 15 mph 1020.5mb 80f 81f
5:24pm 10 16 mph 1020.5mb 80f 81f
5:18pm 10 14 mph 1020.4mb 80f -
5:12pm 8 16 mph 1020.4mb 80f -
5:06pm 10 15 mph 1020.4mb 80f -
5:00pm 10 15 mph 1020.4mb 80f 81f
4:54pm 9 15 mph 1020.5mb 80f 81f
4:48pm 8 15 mph 1020.5mb 80f 81f
4:42pm 10 15 mph 1020.5mb 80f 80f
4:36pm 10 15 mph 1020.5mb 80f 81f
4:30pm 7 15 mph 1020.6mb 80f 82f
4:24pm 10 14 mph 1020.7mb 80f 80f
4:18pm 9 16 mph 1020.7mb 80f 81f
4:12pm 13 16 mph 1020.6mb 80f 80f
4:06pm 8 17 mph 1020.7mb 80f 81f
4:00pm 7 15 mph 1020.7mb 80f 81f
3:54pm 9 15 mph 1020.7mb 80f 81f
3:48pm 8 16 mph 1020.7mb 80f 81f
3:42pm 11 16 mph 1020.8mb 80f 80f
3:36pm 11 15 mph 1020.9mb 80f 80f
3:30pm 9 16 mph 1021mb 80f 81f
3:24pm 8 14 mph 1021.1mb 80f 81f
3:18pm 10 15 mph 1021.1mb 80f 80f
3:06pm 10 14 mph 1021.2mb 80f 80f
3:00pm 9 15 mph 1021.2mb 79f 81f
2:54pm 11 15 mph 1021.2mb 79f 80f
2:48pm 9 14 mph 1021.2mb 79f 81f
2:42pm 9 14 mph 1021.2mb 79f 81f
2:36pm 9 15 mph 1021.2mb 79f 80f
2:30pm 10 14 mph 1021.1mb 78f 81f
2:24pm 10 15 mph 1021.2mb 78f 80f
2:18pm 9 15 mph 1021.2mb 78f 80f
2:12pm 9 14 mph 1021.2mb 78f 80f
2:06pm 9 14 mph 1021.2mb 78f 80f
2:00pm 9 14 mph 1021.2mb 78f 80f
1:54pm 7 14 mph 1021.2mb 78f 81f
1:48pm 10 15 mph 1021.2mb 78f 80f
1:42pm 9 13 mph 1021.2mb 78f 80f
1:36pm 7 14 mph 1021.3mb 79f 80f
1:30pm 8 13 mph 1021.3mb 78f 80f
1:24pm 9 11 mph 1021.3mb 78f 80f
1:18pm 7 13 mph 1021.3mb 78f 80f
1:12pm 9 14 mph 1021.4mb 78f 80f
1:06pm 9 14 mph 1021.4mb 77f 80f
1:00pm 8 15 mph 1021.4mb 77f 81f
12:54pm 8 13 mph 1021.4mb 77f 81f
12:48pm 7 13 mph 1021.4mb 77f 81f
12:42pm 10 14 mph 1021.2mb 77f 81f
12:36pm 6 11 mph 1021.3mb 77f 81f
12:30pm 7 10 mph 1021.3mb 77f 81f
12:24pm 7 13 mph 1021.3mb 77f 81f
12:18pm 8 11 mph 1021.4mb 77f 81f
12:12pm 8 11 mph 1021.4mb 77f 81f
12:06pm 8 11 mph 1021.4mb 77f 80f
12:00pm 8 13 mph 1021.3mb 77f 80f
11:54am 6 10 mph 1021.2mb 77f 81f
11:48am 6 10 mph 1021.2mb 77f 81f
11:42am 5 10 mph 1021.2mb 77f 81f
11:36am 6 9 mph 1021.2mb 77f 81f
11:30am 7 9 mph 1021.2mb 77f 80f
11:24am 6 9 mph 1021.1mb 77f 80f
11:18am 7 11 mph 1021.1mb 77f 80f
11:12am 7 10 mph 1020.9mb 77f 80f
11:06am 6 9 mph 1020.9mb 77f 81f
11:00am 7 10 mph 1020.8mb 77f 80f
10:54am 6 8 mph 1020.7mb 77f 80f
10:48am 3 7 mph 1020.7mb 77f 80f
10:42am 2 8 mph 1020.7mb 77f 80f
10:36am 5 6 mph 1020.7mb 78f 80f
10:24am 3 7 mph 1020.5mb 78f 79f
10:18am 5 6 mph 1020.5mb 78f 78f
10:12am 5 7 mph 1020.5mb 78f 78f
10:06am 5 7 mph 1020.5mb 78f 79f
10:00am 6 8 mph 1020.5mb 78f 79f
9:54am 6 9 mph 1020.5mb 78f 78f
9:48am 8 9 mph - 78f 78f
9:42am 8 9 mph - 78f 78f
9:30am 6
mph
1020.2mb 79f 78f
9:24am 2 6 mph 1020.2mb 79f 78f
9:18am 5 8 mph 1020.2mb 79f 78f
9:12am 3 6 mph 1020.1mb 79f 78f
9:06am 5 6 mph 1020.1mb 79f 77f
9:00am 1 6 mph 1020.1mb 79f 77f
8:54am 3 5 mph 1020mb 79f 76f
8:48am 3 5 mph 1020mb 79f 76f
8:42am 3 5 mph 1019.9mb 79f 75f
8:36am 2 3 mph 1019.8mb 79f 76f
8:30am 2 3 mph 1019.7mb 79f 75f
8:24am 2 3 mph 1019.6mb 79f 75f
8:18am 2 3 mph 1019.4mb 79f 75f
8:12am 2 3 mph 1019.3mb 79f 75f
8:06am 2 3 mph 1019.3mb 79f 75f
8:00am 1
mph
1019.3mb 79f 74f
7:54am 1 3 mph 1019.2mb 79f 74f
7:48am 5
mph
1019.1mb 79f 73f
7:42am 2
mph
1019mb 79f 73f
7:36am 2 3 mph 1018.9mb 79f 73f
7:30am 3 5 mph 1018.7mb 79f 74f
7:24am  -  2 mph 1018.7mb 79f 75f
7:18am 1 2 mph 1018.5mb 79f 74f
7:12am 1 2 mph 1018.4mb 79f 75f
7:06am  -  1 mph 1018.4mb 79f 75f
7:00am  -  2 mph 1018.4mb 79f 73f
6:54am 2 3 mph 1018.3mb 79f 73f
6:48am 3
mph
1018.2mb 79f 72f
6:42am 2
mph
1018.2mb 79f 72f
6:36am  -  mph 1018.2mb 79f 72f
6:30am  -  2 mph 1018.1mb 79f 72f
6:24am  -  1 mph 1018.1mb 79f 72f
6:18am 1 2 mph 1018mb 79f 72f
6:12am 1 2 mph 1017.8mb 79f 72f
6:06am  -  2 mph 1017.8mb 79f 72f
6:00am 1 2 mph 1017.8mb 78f 72f
5:54am 1 2 mph 1017.7mb 78f 72f
5:48am 1 2 mph 1017.7mb 79f 73f
5:42am 2 3 mph 1017.6mb 78f 73f
5:36am 2 3 mph 1017.5mb 78f 72f
5:30am 2 3 mph 1017.6mb 78f 73f
5:24am 3
mph
1017.6mb 78f 73f
5:18am 2 3 mph 1017.5mb 78f 72f
5:12am 2 3 mph 1017.5mb 78f 73f
5:06am 3
mph
1017.5mb 78f 72f
5:00am 3
mph
1017.5mb 78f 73f
4:54am 3
mph
1017.5mb 78f 73f
4:48am 3 5 mph 1017.4mb 78f 73f
4:42am 3 5 mph 1017.3mb 78f 73f
4:36am 3
mph
1017.2mb 78f 72f
4:30am 2 3 mph 1017.1mb 78f 72f
4:24am  -  1 mph 1017.1mb 78f 72f
4:18am 1 2 mph 1017mb 78f 72f
4:12am 1 2 mph 1017mb 78f 72f
4:06am 1 2 mph 1017mb 78f 72f
4:00am 1 3 mph 1017mb 78f 72f
3:54am 2
mph
1017mb 78f 72f
3:48am 2 3 mph 1017mb 78f 72f
3:42am 3 5 mph 1017mb 78f 72f
3:36am 3 5 mph 1017mb 78f 72f
3:30am 3 5 mph 1017mb 78f 72f
3:24am 5 6 mph 1017mb 78f 72f
3:18am 3 5 mph 1017mb 78f 72f
3:12am 3 5 mph 1017mb 78f 72f
3:06am 3 6 mph 1016.9mb 78f 72f
3:00am 5 6 mph 1016.9mb 78f 72f
2:54am 3 5 mph 1016.9mb 78f 73f
2:48am 3 5 mph 1017mb 78f 73f
2:42am 1 2 mph 1016.9mb 78f 73f
2:36am 1 2 mph 1017mb 78f 73f
2:30am 2
mph
1017mb 78f 73f
2:24am 2 3 mph 1017.1mb 78f 73f
2:18am 3 5 mph 1017.2mb 78f 73f
2:12am 5 6 mph 1017.3mb 78f 73f
2:06am 2 3 mph 1017.4mb 78f 74f
2:00am 2 3 mph 1017.4mb 78f 74f
1:54am 2 3 mph 1017.5mb 78f 74f
1:48am  -  mph 1017.6mb 78f 75f
1:42am  -  mph 1017.7mb 78f 75f
1:36am  -  mph 1017.6mb 78f 75f
1:30am 2 5 mph 1017.6mb 78f 75f
1:24am 2 5 mph 1017.5mb 78f 75f
1:18am 2 5 mph 1017.4mb 78f 75f
1:12am 3 7 mph 1017.4mb 78f 75f
1:06am 5 6 mph 1017.4mb 78f 75f
1:00am 2 6 mph 1017.4mb 78f 75f
12:54am 3 6 mph 1017.4mb 78f 75f
12:48am 2 6 mph 1017.5mb 78f 75f
12:42am 5 6 mph 1017.4mb 78f 75f
12:36am 2 5 mph 1017.4mb 78f 75f
12:30am 1 5 mph 1017.4mb 78f 75f
12:24am 3 6 mph 1017.4mb 78f 75f
12:18am 2 6 mph 1017.4mb 78f 75f
12:12am 3 6 mph 1017.4mb 78f 75f
12:06am 3 5 mph 1017.4mb 78f 75f
12:00am 3 6 mph 1017.2mb 78f 75f
Mon 05/23 11:54pm 5 8 mph 1017.2mb 78f 75f
11:48pm 5 8 mph 1017.2mb 78f 76f
11:42pm 2 5 mph 1017.1mb 78f 75f
11:36pm 5 7 mph 1017.1mb 78f 76f
11:30pm 5 7 mph 1017.1mb 78f 75f
11:24pm 3 7 mph 1017.2mb 78f 76f
11:18pm  -  mph 1017.1mb 78f 76f
11:12pm  -  mph 1017mb 78f 76f
11:06pm  -  mph 1017mb 78f 76f
11:00pm  -  mph - 78f -
10:54pm  -  mph - 78f -
10:48pm  -  mph 1016.7mb 78f -
10:42pm  -  mph 1016.6mb 78f -
10:36pm  -  mph 1016.6mb 78f -
10:30pm 5 8 mph 1016.6mb 78f 76f
10:24pm 6 9 mph 1016.5mb 78f 76f
10:18pm 3 6 mph 1016.5mb 78f -
10:12pm 5 6 mph 1016.4mb 78f -
10:06pm 5 9 mph 1016.3mb 78f -
10:00pm 5 8 mph 1016.2mb 78f 76f
9:54pm 5 8 mph 1016.2mb 78f 76f
9:48pm 5 7 mph - 78f -
9:42pm 5 8 mph - 78f -
9:36pm 6 8 mph - 78f -
9:30pm  -  mph - 78f -
9:24pm  -  mph - 78f -
9:18pm  -  mph - 78f -
9:12pm  -  mph - 78f -
9:06pm  -  mph - 78f -
9:00pm  -  mph - 78f 76f
8:54pm  -  mph - 78f 76f
8:48pm 7 10 mph 1015.2mb - -
8:42pm 5 7 mph 1015.2mb - -
8:36pm 6 10 mph 1015mb - -
8:30pm  -  mph 1014.9mb 78f -
8:24pm  -  mph 1014.9mb 79f -
8:18pm 8 11 mph - 79f -
8:12pm 3 9 mph - 79f -
8:06pm 6 10 mph - 79f -
8:00pm 6 10 mph 1014.5mb 79f 77f
7:54pm 5 8 mph 1014.4mb 79f 77f
7:48pm  -  mph 1014.4mb - -
7:42pm  -  mph 1014.3mb - -
7:36pm  -  mph 1014.2mb - -
7:30pm  -  mph - 80f -
7:24pm  -  mph - 80f -
7:18pm  -  mph 1014.1mb 80f -
7:12pm  -  mph 1014.1mb 80f -
7:06pm  -  mph 1014.1mb 80f -
7:00pm  -  mph 1014mb 80f -
6:54pm  -  mph 1014.1mb 80f -
6:48pm  -  mph - 80f -
6:42pm  -  mph - 80f -
6:36pm  -  mph - 80f -
6:30pm 7 14 mph 1014.1mb 80f 79f
6:24pm 8 14 mph 1014.1mb 80f 78f
6:18pm  -  mph 1014.1mb 80f -
6:12pm  -  mph 1014.1mb 80f -
6:06pm  -  mph 1014mb 80f -
6:00pm  -  mph 1014.1mb 80f 79f
5:54pm  -  mph 1014mb 80f 79f
5:48pm  -  mph 1014mb - -
5:42pm  -  mph 1013.9mb - -
5:36pm  -  mph 1013.9mb - -
5:30pm 10 15 mph 1013.9mb 80f 79f
5:24pm 9 13 mph 1013.8mb 80f 79f
5:18pm 11 15 mph 1013.8mb 80f 79f
5:12pm 10 14 mph 1013.8mb 79f 79f
5:06pm 10 14 mph 1013.8mb 79f 79f
5:00pm 11 15 mph 1013.8mb 79f 79f
4:54pm 9 14 mph 1013.7mb 79f 79f
4:48pm 10 14 mph 1013.8mb 79f 79f
4:42pm 9 14 mph 1013.9mb 79f 79f
4:36pm 9 14 mph 1013.9mb 79f 78f
4:30pm 10 13 mph 1013.9mb 79f 79f
4:24pm 9 13 mph 1014mb 80f 79f
4:18pm 7 10 mph 1014mb 79f 79f
4:12pm 8 10 mph 1014.1mb 79f 79f
4:06pm 8 14 mph 1014.1mb 79f 78f
4:00pm 9 11 mph 1014.2mb 79f 78f
3:54pm 9 11 mph 1014.3mb 79f 78f
3:48pm 8 13 mph 1014.3mb 79f 79f
3:42pm 10 13 mph 1014.4mb 79f 78f
3:36pm 8 11 mph 1014.4mb 79f 78f
3:30pm 7 11 mph 1014.5mb 79f 78f
3:24pm 8 10 mph 1014.5mb 79f 78f
3:18pm 8 11 mph 1014.6mb 79f 78f
3:12pm 9 10 mph 1014.6mb 79f 78f
3:06pm 9 11 mph 1014.6mb 79f 78f
3:00pm 10 13 mph 1014.6mb 79f 77f
2:54pm 9 13 mph 1014.6mb 79f 77f
2:48pm 10 14 mph 1014.7mb 79f 77f
2:42pm 10 14 mph 1014.8mb 79f 77f
2:36pm 10 13 mph 1014.8mb 79f 77f
2:30pm 9 13 mph 1014.9mb 79f 77f
2:24pm 11 13 mph 1014.9mb 79f 77f
2:18pm 10 13 mph 1014.9mb 78f 77f
2:12pm 9 11 mph 1014.9mb 78f 77f
2:06pm 9 13 mph 1014.9mb 78f 77f
2:00pm 9 13 mph 1014.9mb 78f -
1:54pm 10 13 mph 1014.9mb 78f -
1:48pm  -  mph - - 77f
1:42pm  -  mph - - 76f
1:36pm  -  mph - - 77f
1:30pm 8 10 mph 1015mb 78f 77f
1:24pm 9 11 mph 1015.1mb 78f 77f
1:18pm 10 13 mph 1015.1mb 78f 76f
1:12pm 10 13 mph 1015.2mb 78f 76f
1:06pm 8
mph
1015.2mb 78f 76f
1:00pm 7 8 mph 1015.3mb 78f 76f
12:54pm 8 10 mph 1015.3mb 78f 76f
12:48pm 9 10 mph 1015.3mb 78f 76f
12:42pm 8 9 mph 1015.4mb 77f 76f
12:36pm 8 9 mph 1015.4mb 77f 76f
12:30pm 9 11 mph 1015.4mb 77f 76f
12:24pm 9 10 mph 1015.5mb 77f 75f
12:18pm 9 11 mph 1015.5mb 77f 75f
11:48am 10 11 mph 1015.7mb 77f 75f
11:42am 9 11 mph 1015.7mb 77f 75f
11:36am 9 13 mph 1015.5mb 77f 75f
11:30am 8
mph
1015.5mb 77f 75f
11:24am 9 10 mph 1015.5mb - 75f
11:18am 9 11 mph 1015.4mb 77f 75f
11:12am 9 11 mph 1015.4mb 77f 75f
11:06am 9 10 mph 1015.3mb 77f 75f
11:00am 9 11 mph 1015.4mb 77f 75f
10:54am 8
mph
1015.3mb 77f 75f
10:48am 7 9 mph 1015.5mb 77f 75f
10:42am 8 9 mph 1015.3mb 77f 75f
10:36am 7 8 mph 1015.4mb 77f 76f
10:30am 8 9 mph 1015.4mb 77f 76f
10:24am 6 8 mph 1015.4mb 77f 76f
10:18am 7 9 mph 1015.3mb 77f 76f
10:12am 7
mph
1015.2mb 77f 76f
10:06am 6 8 mph 1015.2mb 77f 76f
10:00am 2 6 mph 1015.2mb 77f 77f
9:54am 1 3 mph 1015.2mb 77f 77f
9:48am  -  1 mph 1015.2mb 77f 76f
9:42am  -  1 mph 1015.1mb 77f 76f
9:36am  -  1 mph 1015mb 77f 75f
9:30am 1 2 mph 1015mb 77f 74f
9:24am 1 3 mph 1015mb 77f 74f
9:18am 3
mph
1015mb 77f 73f
9:12am 2 3 mph 1015mb 77f 73f
9:06am 3
mph
1015mb 77f 73f
9:00am 3 5 mph 1015mb 78f 72f
8:54am 3 5 mph 1014.9mb 78f 72f
8:48am 2 3 mph 1014.8mb 78f 71f
8:42am 2 5 mph 1014.7mb 78f 71f
8:36am 3 5 mph 1014.7mb 78f 70f
8:30am 5
mph
1014.6mb 78f 70f
8:24am 2 5 mph 1014.6mb 78f 69f
8:18am 2 5 mph 1014.6mb 78f 69f
8:12am 5 6 mph 1014.6mb 78f 69f
8:06am 5 6 mph 1014.5mb 78f 68f
8:00am 5 6 mph 1014.4mb 78f 68f
7:54am 5 6 mph 1014.3mb 79f 68f
7:48am 5 6 mph 1014.2mb 79f 67f
7:42am 5 6 mph 1014.1mb 79f 68f
7:36am 6 7 mph 1013.9mb 79f 67f
7:30am 7 8 mph 1013.9mb 79f 67f
7:24am 7 8 mph 1013.8mb - 67f
7:18am 6 7 mph 1013.7mb - 68f
7:12am 6 7 mph 1013.6mb - 68f
7:06am 6 7 mph 1013.5mb - 68f
7:00am 5 6 mph 1013.4mb - 69f
6:54am 5 6 mph 1013.4mb - 68f
6:48am 3 5 mph 1013.3mb - 68f
6:42am 2 3 mph 1013.2mb - 68f
6:36am 3 5 mph 1013.2mb - 68f
6:30am 3 6 mph 1013.1mb - 68f
6:24am 3 5 mph 1013mb - 68f
6:18am 2 3 mph 1012.9mb - 68f
6:06am 3 6 mph 1012.8mb - 68f
6:00am 2 5 mph 1012.7mb - 68f
5:54am 3 5 mph 1012.6mb - 68f
5:48am 3 5 mph 1012.5mb - 68f
5:42am 5
mph
1012.6mb - 68f
5:36am 3 5 mph 1012.6mb - 68f
5:30am 5 6 mph 1012.6mb - 68f
5:24am 5
mph
1012.6mb - 68f
5:18am 3 5 mph 1012.7mb - 68f
5:12am 3 5 mph 1012.7mb - 68f
5:06am 3 5 mph 1012.7mb - 69f
5:00am 2 5 mph 1012.7mb - 69f
4:54am 3 5 mph 1012.6mb - 68f
4:48am 2 3 mph 1012.7mb - 68f
4:42am 2 3 mph 1012.7mb - 69f
4:36am 2 3 mph 1012.7mb - 69f
4:30am 2 3 mph 1012.7mb - 69f
4:24am 2 3 mph 1012.6mb - 69f
4:18am 2 3 mph 1012.5mb - 69f
4:12am 2 3 mph 1012.5mb - 69f
4:06am 2 5 mph 1012.5mb - 69f
4:00am 2 5 mph 1012.5mb - 69f
3:54am 3 5 mph 1012.5mb - 69f
3:48am 3 5 mph 1012.4mb - 69f
3:42am 2 5 mph 1012.4mb - 69f
3:36am 3 5 mph 1012.4mb - 69f
3:30am 2 5 mph 1012.5mb - 69f
3:24am 3 5 mph 1012.5mb - 69f
3:18am 3 5 mph 1012.4mb - 70f
3:12am 2 6 mph 1012.4mb - 70f
3:06am 3 6 mph 1012.4mb - 70f
3:00am 3 6 mph 1012.4mb - 70f
2:54am 5 6 mph 1012.3mb - 70f
2:48am 5 7 mph 1012.4mb - 70f
2:42am 6 8 mph 1012.4mb - 70f
2:36am 6 9 mph 1012.4mb - 70f
2:30am 7 9 mph 1012.5mb - 70f
2:24am 7 9 mph 1012.5mb - 71f
2:18am 6 8 mph 1012.5mb - 71f
2:12am 6 9 mph 1012.6mb - 71f
2:06am 7 9 mph 1012.6mb - 71f
2:00am 6 8 mph 1012.7mb - 71f
1:54am 6 7 mph 1012.7mb - 71f
1:48am  -  mph 1012.8mb - 71f
1:42am  -  mph 1012.8mb - 71f
1:36am  -  mph 1012.9mb - 71f
1:30am 5 7 mph 1012.9mb - 71f
1:24am 5 8 mph 1012.9mb - 71f
1:18am 6 8 mph 1013mb - 71f
1:12am 6 7 mph 1012.9mb - 72f
1:06am 5 6 mph 1012.9mb - 72f
1:00am 5 7 mph 1013mb - 72f
12:54am 6 8 mph 1013.1mb - 72f
12:48am 5 7 mph 1013.2mb - 72f
12:42am 6 7 mph 1013.2mb - 72f
12:36am 5 7 mph 1013.2mb - 72f
12:30am 6 7 mph 1013.2mb - 72f
12:24am 5 7 mph 1013.2mb - 72f
12:18am 5 7 mph 1013.2mb - 73f
12:12am 6 7 mph 1013.2mb - 73f
12:06am 6 7 mph 1013.2mb - 73f
12:00am 5 6 mph 1013.2mb - 73f
Sun 05/22 11:54pm 5 7 mph 1013.2mb - 73f
11:48pm 7 8 mph 1013.2mb - 73f
11:42pm 7 9 mph 1013.2mb - 73f
11:36pm 6 8 mph 1013.2mb - 74f
11:30pm 6 8 mph 1013.2mb - 74f
11:24pm 7 9 mph 1013.1mb - 74f
11:18pm  -  mph 1013.1mb - 74f
11:12pm  -  mph 1013.1mb - 74f
11:06pm  -  mph 1013mb - 74f
11:00pm  -  mph 1013mb - -
10:54pm  -  mph 1012.9mb - -
10:48pm 5 6 mph 1012.9mb - -
10:42pm 5 7 mph 1012.9mb - -
10:36pm 5 7 mph 1012.8mb - -
10:30pm 6
mph
1012.7mb - -
10:24pm 5 6 mph 1012.6mb - -
10:18pm  -  mph 1012.5mb - -
10:12pm  -  mph 1012.5mb - -
10:06pm  -  mph 1012.5mb - -
10:00pm 5 7 mph 1012.4mb - 75f
9:54pm 5 6 mph 1012.3mb - 75f
9:48pm 6
mph
1012.3mb - -
9:42pm 6 7 mph 1012.2mb - -
9:36pm 6 7 mph 1012.1mb - -
9:30pm 6
mph
1012.1mb - 75f
9:24pm 6
mph
1012.1mb - 75f
9:18pm  -  mph 1012mb - 76f
9:12pm  -  mph 1012mb - 76f
9:06pm  -  mph 1012.1mb - 76f
9:00pm 6 7 mph 1011.9mb - 76f
8:54pm 5 6 mph 1011.8mb - 76f
8:48pm 3 6 mph 1011.8mb - -
8:42pm 5 6 mph 1011.9mb - -
8:36pm 6 7 mph 1011.9mb - -
8:30pm  -  mph 1011.9mb - -
8:24pm  -  mph 1011.8mb - -
8:18pm 5 6 mph - - -
8:12pm 5 7 mph - - -
8:06pm 6
mph
- - -
8:00pm  -  mph 1011.6mb - -
7:54pm  -  mph 1011.5mb - -
7:48pm  -  mph 1011.5mb - -
7:42pm  -  mph 1011.4mb - -
7:36pm  -  mph 1011.4mb - -